KJ4YRE Weather Reports


Display with metric or nautical units.
time (UTC)temp
F
wind
direction
speed
MPH
gust
MPH
rain 1hr
in
rain 24hr
in
rain mn
in
humidity
%
barometer
mb
20260505083006 61 255 5.0 8.0 0.00 0.00 0.00 76 1015.4
20260505082504 61 242 2.0 9.0 0.00 0.00 0.00 76 1015.4
20260505082214 61 249 6.0 9.0 0.00 0.00 0.00 76 1015.4
20260505081505 61 201 5.0 13.0 0.00 0.00 0.00 76 1015.4
20260505081216 61 243 6.0 12.0 0.00 0.00 0.00 76 1015.4
20260505080505 61 234 4.0 10.0 0.00 0.00 0.00 76 1015.3
20260505080006 61 225 5.0 9.0 0.00 0.00 0.00 76 1015.2
20260505075505 61 254 3.0 9.0 0.00 0.00 0.00 76 1015.2
20260505075216 62 271 5.0 13.0 0.00 0.00 0.00 75 1015.2
20260505074504 61 224 3.0 14.0 0.00 0.00 0.00 76 1015.2
20260505074007 61 266 4.0 9.0 0.00 0.00 0.00 76 1015.2
20260505073506 61 256 3.0 6.0 0.00 0.00 0.00 76 1015.1
20260505073006 62 324 3.0 7.0 0.00 0.00 0.00 75 1015.0
20260505072504 62 231 6.0 14.0 0.00 0.00 0.00 75 1014.9
20260505072007 62 271 3.0 12.0 0.00 0.00 0.00 75 1014.9
20260505071505 62 253 6.0 15.0 0.00 0.00 0.00 76 1014.9
20260505071216 62 259 2.0 14.0 0.00 0.00 0.00 75 1014.9
20260505070507 62 233 5.0 9.0 0.00 0.00 0.00 75 1014.8
20260505070006 62 233 6.0 14.0 0.00 0.00 0.00 75 1014.8
20260505065506 62 214 5.0 12.0 0.00 0.00 0.00 75 1014.7
20260505065216 62 232 6.0 12.0 0.00 0.00 0.00 75 1014.7
20260505064505 62 233 4.0 10.0 0.00 0.00 0.00 74 1014.7
20260505064007 62 258 5.0 12.0 0.00 0.00 0.00 74 1014.8
20260505063717 63 232 3.0 10.0 0.00 0.00 0.00 74 1014.8
20260505063005 63 248 4.0 13.0 0.00 0.00 0.00 74 1014.7
20260505062505 63 226 4.0 10.0 0.00 0.00 0.00 73 1014.8
20260505062216 63 249 4.0 14.0 0.00 0.00 0.00 73 1014.8
20260505061505 63 249 3.0 14.0 0.00 0.00 0.00 73 1014.8
20260505061004 64 243 3.0 16.0 0.00 0.00 0.00 72 1014.8
20260505060506 64 231 6.0 16.0 0.00 0.00 0.00 71 1014.8
20260505060215 64 238 5.0 12.0 0.00 0.00 0.00 72 1014.8
20260505055504 64 62 2.0 12.0 0.00 0.00 0.00 72 1014.9
20260505055006 64 235 5.0 14.0 0.00 0.00 0.00 71 1014.8
20260505054716 64 233 6.0 16.0 0.00 0.00 0.00 72 1014.8
20260505054005 64 255 6.0 14.0 0.00 0.00 0.00 71 1014.8
20260505053505 64 254 4.0 14.0 0.00 0.00 0.00 73 1014.8
20260505053217 64 235 6.0 14.0 0.00 0.00 0.00 72 1014.9
20260505052716 64 234 6.0 13.0 0.00 0.00 0.00 72 1014.9
20260505052006 64 239 6.0 14.0 0.00 0.00 0.00 72 1014.8
20260505051505 64 189 3.0 10.0 0.00 0.00 0.00 72 1014.9
20260505051006 64 235 6.0 13.0 0.00 0.00 0.00 72 1014.8
20260505050716 64 212 3.0 13.0 0.00 0.00 0.00 72 1014.8
20260505041716 65 261 3.0 12.0 0.00 0.00 0.00 72 1014.7
20260505041006 65 248 3.0 13.0 0.00 0.00 0.00 71 1014.7
20260505040506 64 235 3.0 14.0 0.00 0.00 0.00 71 1014.7
20260505040221 64 211 3.0 10.0 0.00 0.00 0.00 71 1014.5
20260505035505 65 153 4.0 13.0 0.00 0.00 0.00 70 1014.4
20260505035215 65 228 4.0 8.0 0.00 0.00 0.00 69 1014.5
20260505034505 65 268 2.0 9.0 0.00 0.00 0.00 68 1014.5
20260505034006 65 232 4.0 14.0 0.00 0.00 0.00 67 1014.5
20260505033507 65 188 2.0 8.0 0.00 0.00 0.00 66 1014.4
20260505033007 65 170 2.0 14.0 0.00 0.00 0.00 65 1014.3
20260505032504 65 246 4.0 12.0 0.00 0.00 0.00 64 1014.4
20260505032217 65 218 3.0 14.0 0.00 0.00 0.00 63 1014.3
20260505031715 65 250 3.0 14.0 0.00 0.00 0.00 61 1014.3
20260505031006 65 191 2.0 13.0 0.00 0.00 0.00 60 1014.3
20260505030505 65 220 2.0 8.0 0.00 0.00 0.00 59 1014.3
20260505030006 65 201 3.0 8.0 0.00 0.00 0.00 59 1014.3
20260505025506 65 212 3.0 10.0 0.00 0.00 0.00 58 1014.3
20260505025216 64 240 1.0 5.0 0.00 0.00 0.00 60 1014.2
20260505024505 65 195 2.0 3.0 0.00 0.00 0.00 59 1014.1
20260505024005 65 237 2.0 6.0 0.00 0.00 0.00 58 1014.1
20260505023506 65 220 2.0 5.0 0.00 0.00 0.00 58 1014.1
20260505023006 65 177 3.0 6.0 0.00 0.00 0.00 58 1014.0
20260505022504 65 211 2.0 6.0 0.00 0.00 0.00 59 1014.0
20260505022216 65 201 1.0 5.0 0.00 0.00 0.00 59 1013.9
20260505021505 65 238 3.0 6.0 0.00 0.00 0.00 59 1013.8
20260505021216 65 227 2.0 7.0 0.00 0.00 0.00 59 1013.8
20260505020505 65 230 1.0 3.0 0.00 0.00 0.00 59 1013.8
20260505020005 65 158 1.0 5.0 0.00 0.00 0.00 58 1013.8
20260505015505 65 272 2.0 7.0 0.00 0.00 0.00 60 1013.8
20260505015004 66 223 2.0 7.0 0.00 0.00 0.00 57 1013.6
20260505014504 66 205 2.0 6.0 0.00 0.00 0.00 57 1013.6
20260505014008 66 226 1.0 6.0 0.00 0.00 0.00 58 1013.6
20260505013505 66 213 1.0 3.0 0.00 0.00 0.00 57 1013.6
20260505013007 66 211 2.0 6.0 0.00 0.00 0.00 56 1013.6
20260505012716 66 320 0.0 5.0 0.00 0.00 0.00 56 1013.6
20260505012006 66 221 1.0 3.0 0.00 0.00 0.00 56 1013.6
20260505011716 66 201 1.0 3.0 0.00 0.00 0.00 55 1013.5
20260505011217 66 192 1.0 3.0 0.00 0.00 0.00 57 1013.5
20260505010506 66 178 2.0 2.0 0.00 0.00 0.00 57 1013.4
20260505010217 66 174 1.0 3.0 0.00 0.00 0.00 57 1013.5
20260505005504 66 183 2.0 3.0 0.00 0.00 0.00 57 1013.5
20260505005007 66 198 2.0 5.0 0.00 0.00 0.00 57 1013.4
20260505004505 66 194 1.0 2.0 0.00 0.00 0.00 57 1013.4
20260505004008 66 191 1.0 3.0 0.00 0.00 0.00 56 1013.4
20260505003715 66 231 1.0 3.0 0.00 0.00 0.00 57 1013.4
20260505003006 67 209 1.0 3.0 0.00 0.00 0.00 55 1013.3
20260505002505 67 170 1.0 2.0 0.00 0.00 0.00 55 1013.3
20260505002007 68 212 1.0 3.0 0.00 0.00 0.00 54 1013.2
20260505001505 68 231 2.0 3.0 0.00 0.00 0.00 53 1013.1
20260505001005 68 240 1.0 5.0 0.00 0.00 0.00 52 1013.0
20260505000507 69 240 2.0 3.0 0.00 0.00 0.00 53 1013.0
20260505000218 69 231 1.0 2.0 0.00 0.00 0.00 52 1012.9
20260504235715 70 199 1.0 1.0 0.00 0.00 0.00 51 1012.9
20260504235006 70 237 1.0 3.0 0.00 0.00 0.00 49 1012.9
20260504234507 71 234 1.0 3.0 0.00 0.00 0.00 48 1012.9
20260504234006 72 222 1.0 3.0 0.00 0.00 0.00 46 1012.8
20260504233505 72 236 2.0 3.0 0.00 0.00 0.00 46 1012.8
20260504233007 73 239 2.0 5.0 0.00 0.00 0.00 44 1012.9
20260504232505 73 213 2.0 5.0 0.00 0.00 0.00 43 1012.8
20260504232005 74 237 3.0 7.0 0.00 0.00 0.00 42 1012.7
20260504231505 74 205 3.0 7.0 0.00 0.00 0.00 42 1012.6
20260504231005 74 259 3.0 8.0 0.00 0.00 0.00 41 1012.6
20260504230506 75 247 2.0 7.0 0.00 0.00 0.00 40 1012.5
20260504230007 75 219 3.0 7.0 0.00 0.00 0.00 40 1012.5
20260504225505 76 272 3.0 6.0 0.00 0.00 0.00 38 1012.5
20260504225006 77 219 3.0 7.0 0.00 0.00 0.00 37 1012.4
20260504224505 79 241 3.0 7.0 0.00 0.00 0.00 34 1012.3
20260504224007 78 279 2.0 8.0 0.00 0.00 0.00 34 1012.3
20260504223506 79 271 1.0 6.0 0.00 0.00 0.00 34 1012.3
20260504223007 79 245 4.0 6.0 0.00 0.00 0.00 33 1012.4
20260504222505 80 241 3.0 7.0 0.00 0.00 0.00 33 1012.4
20260504222005 80 244 3.0 5.0 0.00 0.00 0.00 33 1012.4
20260504221506 80 233 1.0 6.0 0.00 0.00 0.00 30 1012.4
20260504221005 79 234 3.0 7.0 0.00 0.00 0.00 30 1012.4
20260504220507 78 151 2.0 9.0 0.00 0.00 0.00 29 1012.3
20260504220006 79 243 2.0 8.0 0.00 0.00 0.00 31 1012.4
20260504215506 80 252 2.0 8.0 0.00 0.00 0.00 29 1012.3
20260504215215 80 227 2.0 14.0 0.00 0.00 0.00 29 1012.4
20260504214504 80 228 3.0 17.0 0.00 0.00 0.00 28 1012.4
20260504214217 79 255 5.0 15.0 0.00 0.00 0.00 30 1012.4
20260504213507 81 212 4.0 10.0 0.00 0.00 0.00 28 1012.3
20260504213006 81 300 4.0 10.0 0.00 0.00 0.00 27 1012.3
20260504212505 81 264 8.0 16.0 0.00 0.00 0.00 28 1012.3
20260504212007 82 286 3.0 9.0 0.00 0.00 0.00 29 1012.4
20260504211505 81 293 4.0 8.0 0.00 0.00 0.00 31 1012.4
20260504211217 81 283 2.0 7.0 0.00 0.00 0.00 31 1012.4
20260504210507 83 287 2.0 7.0 0.00 0.00 0.00 30 1012.4
20260504210006 81 237 3.0 7.0 0.00 0.00 0.00 31 1012.5
20260504205507 81 98 2.0 6.0 0.00 0.00 0.00 29 1012.4
20260504205005 82 169 0.0 7.0 0.00 0.00 0.00 30 1012.5
20260504204716 82 206 3.0 12.0 0.00 0.00 0.00 32 1012.6
20260504204005 81 11 3.0 8.0 0.00 0.00 0.00 30 1012.6
20260504203507 81 221 3.0 7.0 0.00 0.00 0.00 31 1012.6
20260504203217 82 93 2.0 6.0 0.00 0.00 0.00 31 1012.6
20260504202505 82 271 2.0 6.0 0.00 0.00 0.00 30 1012.7
20260504202005 80 273 3.0 7.0 0.00 0.00 0.00 30 1012.7
20260504201505 81 196 3.0 9.0 0.00 0.00 0.00 30 1012.8
20260504201005 81 200 2.0 8.0 0.00 0.00 0.00 30 1012.8
20260504200716 82 207 3.0 8.0 0.00 0.00 0.00 29 1012.9
20260504200006 81 285 1.0 9.0 0.00 0.00 0.00 29 1013.0
20260504195505 80 227 3.0 8.0 0.00 0.00 0.00 29 1013.2
20260504195005 79 75 2.0 7.0 0.00 0.00 0.00 30 1013.2
20260504194716 80 235 4.0 8.0 0.00 0.00 0.00 28 1013.3
20260504194005 78 232 4.0 9.0 0.00 0.00 0.00 30 1013.4
20260504193504 79 128 2.0 12.0 0.00 0.00 0.00 31 1013.4
20260504193005 77 284 3.0 12.0 0.00 0.00 0.00 30 1013.6
20260504192715 76 231 2.0 14.0 0.00 0.00 0.00 30 1013.7
20260504192217 77 243 3.0 14.0 0.00 0.00 0.00 28 1013.7
20260504191715 77 228 6.0 16.0 0.00 0.00 0.00 28 1013.7
20260504191005 78 260 4.0 13.0 0.00 0.00 0.00 31 1013.8
20260504190505 76 244 5.0 16.0 0.00 0.00 0.00 32 1013.9
20260504190216 77 253 4.0 12.0 0.00 0.00 0.00 32 1013.8
20260504185505 78 291 4.0 7.0 0.00 0.00 0.00 32 1013.8
20260504185006 77 26 1.0 7.0 0.00 0.00 0.00 34 1014.0
20260504184715 75 225 4.0 8.0 0.00 0.00 0.00 34 1014.0
20260504184214 76 269 5.0 13.0 0.00 0.00 0.00 33 1014.1
20260504183505 76 329 2.0 8.0 0.00 0.00 0.00 32 1014.1
20260504183007 76 207 2.0 7.0 0.00 0.00 0.00 33 1014.2
20260504182505 75 76 3.0 8.0 0.00 0.00 0.00 33 1014.4
20260504182005 76 321 2.0 7.0 0.00 0.00 0.00 33 1014.5
20260504181717 76 94 2.0 6.0 0.00 0.00 0.00 31 1014.5
20260504181006 74 56 2.0 9.0 0.00 0.00 0.00 35 1014.6
20260504180507 74 246 2.0 7.0 0.00 0.00 0.00 34 1014.6
20260504180006 74 233 2.0 12.0 0.00 0.00 0.00 36 1014.7
20260504175507 74 251 2.0 8.0 0.00 0.00 0.00 34 1014.8
20260504175216 75 245 3.0 12.0 0.00 0.00 0.00 34 1014.7
20260504174505 75 210 5.0 12.0 0.00 0.00 0.00 32 1014.8
20260504174005 77 329 2.0 8.0 0.00 0.00 0.00 30 1014.8
20260504173505 77 93 1.0 5.0 0.00 0.00 0.00 34 1014.9
20260504173007 77 94 1.0 13.0 0.00 0.00 0.00 31 1014.9
20260504172504 77 260 4.0 13.0 0.00 0.00 0.00 33 1015.1
20260504172006 78 281 3.0 8.0 0.00 0.00 0.00 32 1015.1
20260504171506 77 227 4.0 7.0 0.00 0.00 0.00 33 1015.1
20260504171006 75 72 2.0 8.0 0.00 0.00 0.00 34 1015.1
20260504170717 75 235 4.0 9.0 0.00 0.00 0.00 34 1015.2
20260504170216 74 118 3.0 13.0 0.00 0.00 0.00 32 1015.2
20260504151005 69 343 3.0 7.0 0.00 0.00 0.00 45 1016.5
20260504150509 69 77 2.0 9.0 0.00 0.00 0.00 46 1016.5
20260504141005 66 217 2.0 7.0 0.00 0.00 0.00 53 1016.8
20260504140505 66 196 1.0 3.0 0.00 0.00 0.00 54 1016.7
20260504130717 60 293 2.0 8.0 0.00 0.00 0.00 62 1017.3
20260504130216 59 358 4.0 10.0 0.00 0.00 0.00 63 1017.4
20260504120216 54 231 5.0 8.0 0.00 0.00 0.00 78 1017.9
20260504110508 51 197 0.0 1.0 0.00 0.00 0.00 82 1017.9
20260504110217 51 243 1.0 1.0 0.00 0.00 0.00 82 1017.9
20260504100507 50 242 2.0 5.0 0.00 0.00 0.00 80 1017.8
20260504100215 50 213 1.0 3.0 0.00 0.00 0.00 80 1017.9